Weather History for Hot Springs, VA

Change the Weather History Date:

Sunday, January 7, 2007

  Actual Average Record
Temperature  
Mean Temperature 42 °F -  
Max Temperature 46 °F 34 °F 60 °F (1998)
Min Temperature 39 °F 21 °F -14 °F (2014)
Degree Days  
Heating Degree Days 22    
Moisture  
Dew Point 42 °F    
Average Humidity 100    
Maximum Humidity 100    
Minimum Humidity 93    
Precipitation  
Precipitation 0.77 in - - ()
Sea Level Pressure  
Sea Level Pressure 30.14 in    
Wind  
Wind Speed 12 mph (SE)    
Max Wind Speed 17 mph    
Max Gust Speed 28 mph    
Visibility 6 miles    
Events Rain    
Averages and records for this station are not official NWS values.
T = Trace of Precipitation, MM = Missing Value Source: NWS Daily Summary

Daily Weather History Graph

Daily Weather History Graph

Search for Another Location

Airport:

Trip Planner

Search our weather history database for the weather conditions in past years. The results will help you decide how hot, cold, wet, or windy it might be!

Date:

Astronomy

Jan. 07, 2007 Rise Set
Actual Time 7:35 AM EST 5:15 PM EST
Civil Twilight 7:06 AM EST 5:44 PM EST
Nautical Twilight 6:33 AM EST 6:17 PM EST
Astronomical Twilight 6:01 AM EST 6:49 PM EST
Moon 9:32 PM EST (1/7) 10:13 AM EST (1/7)
Length of Visible Light 10h 38m
Length of Day
9h 40m
Waning Gibbous, 83% of the Moon is Illuminated
Jan 7
Waning Gibbous
Jan 11
Last Quarter
Jan 18
New
Jan 25
First Quarter
Feb 2
Full

Hourly Weather History & Observations

Time (EST) Temp. Windchill Dew Point Humidity Pressure Visibility Wind Dir Wind Speed Gust Speed Precip Events Conditions
12:00 AM 46.4 °F 40.1 °F 46.4 °F 100% 30.17 in 10.0 mi West 15.0 mph 20.7 mph N/A   Overcast
12:20 AM 46.4 °F 40.1 °F 46.4 °F 100% 30.18 in 10.0 mi West 15.0 mph 24.2 mph N/A   Overcast
12:40 AM 46.4 °F 39.5 °F 46.4 °F 100% 30.18 in 10.0 mi West 17.3 mph 23.0 mph N/A   Overcast
1:00 AM 44.6 °F 37.8 °F 44.6 °F 100% 30.18 in 10.0 mi West 15.0 mph 23.0 mph N/A   Mostly Cloudy
1:20 AM 44.6 °F 38.4 °F 44.6 °F 100% 30.19 in 10.0 mi WNW 12.7 mph 16.1 mph N/A   Mostly Cloudy
2:00 AM 44.6 °F 39.2 °F 44.6 °F 100% 30.20 in 10.0 mi WNW 10.4 mph 16.1 mph N/A   Mostly Cloudy
2:20 AM 44.6 °F 38.8 °F 44.6 °F 100% 30.20 in 10.0 mi WNW 11.5 mph - N/A   Scattered Clouds
2:40 AM 44.6 °F 38.1 °F 44.6 °F 100% 30.20 in 10.0 mi WNW 13.8 mph 21.9 mph N/A   Scattered Clouds
3:00 AM 44.6 °F 37.8 °F 44.6 °F 100% 30.21 in 10.0 mi WNW 15.0 mph 21.9 mph N/A   Clear
3:20 AM 42.8 °F 36.2 °F 42.8 °F 100% 30.21 in 10.0 mi WNW 12.7 mph 19.6 mph N/A   Scattered Clouds
3:40 AM 42.8 °F 37.0 °F 42.8 °F 100% 30.22 in 10.0 mi WNW 10.4 mph 18.4 mph N/A   Clear
4:00 AM 42.8 °F 37.5 °F 42.8 °F 100% 30.23 in 10.0 mi WNW 9.2 mph - N/A   Clear
4:20 AM 42.8 °F 37.0 °F 42.8 °F 100% 30.23 in 10.0 mi WNW 10.4 mph - N/A   Clear
4:40 AM 42.8 °F 38.6 °F 42.8 °F 100% 30.24 in 10.0 mi WNW 6.9 mph - N/A   Clear
5:00 AM 42.8 °F 37.5 °F 42.8 °F 100% 30.24 in 10.0 mi WNW 9.2 mph - N/A   Clear
5:20 AM 42.8 °F 37.5 °F 42.8 °F 100% 30.24 in 10.0 mi NW 9.2 mph - N/A   Clear
6:00 AM 42.8 °F 40.1 °F 42.8 °F 100% 30.25 in 10.0 mi WNW 4.6 mph - N/A   Clear
6:20 AM 42.8 °F 41.1 °F 42.8 °F 100% 30.25 in 10.0 mi NNW 3.5 mph - N/A   Clear
6:40 AM 41.0 °F - 41.0 °F 100% 30.25 in 10.0 mi Calm Calm - N/A   Clear
7:00 AM 39.2 °F 35.9 °F 39.2 °F 100% 30.25 in 10.0 mi East 4.6 mph - N/A   Clear
7:20 AM 39.2 °F 35.9 °F 39.2 °F 100% 30.26 in 10.0 mi East 4.6 mph - N/A   Clear
7:40 AM 41.0 °F 37.1 °F 41.0 °F 100% 30.25 in 10.0 mi East 5.8 mph - N/A   Clear
8:00 AM 41.0 °F 36.4 °F 41.0 °F 100% 30.26 in 10.0 mi East 6.9 mph - N/A   Clear
8:20 AM 42.8 °F 38.0 °F 42.8 °F 100% 30.27 in 10.0 mi ESE 8.1 mph - N/A   Clear
8:40 AM 42.8 °F 37.5 °F 42.8 °F 100% 30.27 in 10.0 mi ESE 9.2 mph - N/A   Clear
9:00 AM 42.8 °F 37.5 °F 42.8 °F 100% 30.28 in 10.0 mi ESE 9.2 mph - N/A   Clear
9:20 AM 42.8 °F 36.2 °F 42.8 °F 100% 30.27 in 10.0 mi ESE 12.7 mph 17.3 mph N/A   Scattered Clouds
9:40 AM 44.6 °F 38.8 °F 42.8 °F 93% 30.27 in 10.0 mi SE 11.5 mph - N/A   Mostly Cloudy
10:00 AM 44.6 °F 38.1 °F 42.8 °F 93% 30.26 in 10.0 mi SE 13.8 mph - N/A   Overcast
10:20 AM 44.6 °F 37.8 °F 44.6 °F 100% 30.25 in 10.0 mi ESE 15.0 mph 23.0 mph N/A   Overcast
11:00 AM 42.8 °F 36.6 °F 42.8 °F 100% 30.22 in 10.0 mi ESE 11.5 mph 19.6 mph N/A   Overcast
11:20 AM 42.8 °F 35.8 °F 42.8 °F 100% 30.22 in 10.0 mi ESE 13.8 mph 20.7 mph N/A   Overcast
12:00 PM 42.8 °F 36.2 °F 42.8 °F 100% 30.18 in 7.0 mi ESE 12.7 mph 23.0 mph N/A   Overcast
12:20 PM 41.0 °F 34.3 °F 41.0 °F 100% 30.17 in 4.0 mi ESE 11.5 mph 19.6 mph N/A   Overcast
1:00 PM 41.0 °F 33.1 °F 41.0 °F 100% 30.12 in 10.0 mi ESE 15.0 mph 23.0 mph N/A   Overcast
1:20 PM 41.0 °F 34.3 °F 41.0 °F 100% 30.12 in 10.0 mi ESE 11.5 mph 25.3 mph N/A   Overcast
1:40 PM 41.0 °F 34.3 °F 41.0 °F 100% 30.08 in 10.0 mi ESE 11.5 mph 20.7 mph N/A   Overcast
2:00 PM 41.0 °F 33.9 °F 41.0 °F 100% 30.08 in 10.0 mi ESE 12.7 mph 21.9 mph N/A   Overcast
2:20 PM 41.0 °F 33.9 °F 41.0 °F 100% 30.07 in 7.0 mi ESE 12.7 mph 20.7 mph N/A   Light Drizzle
2:40 PM 39.2 °F 30.8 °F 39.2 °F 100% 30.06 in 2.5 mi ESE 15.0 mph 23.0 mph N/A Rain Light Rain
3:00 PM 39.2 °F 31.6 °F 39.2 °F 100% 30.05 in 0.2 mi ESE 12.7 mph - 0.02 in Rain Light Rain
3:20 PM 39.2 °F 30.2 °F 39.2 °F 100% 30.03 in 0.2 mi ESE 17.3 mph 20.7 mph 0.05 in Rain Rain
3:40 PM 41.0 °F 34.7 °F 41.0 °F 100% 30.08 in 0.2 mi SE 10.4 mph 20.7 mph 0.11 in Rain Rain
4:00 PM 41.0 °F 33.1 °F 41.0 °F 100% 30.06 in 0.2 mi SE 15.0 mph - 0.08 in   Overcast
4:20 PM 41.0 °F 33.1 °F 41.0 °F 100% 30.03 in 0.2 mi SE 15.0 mph 20.7 mph 0.11 in Rain Light Rain
4:40 PM 41.0 °F 34.3 °F 41.0 °F 100% 30.03 in 0.2 mi ESE 11.5 mph 17.3 mph 0.12 in Rain Rain
5:00 PM 41.0 °F 35.2 °F 41.0 °F 100% 30.03 in 0.2 mi ESE 9.2 mph 19.6 mph 0.01 in Rain Heavy Rain
5:20 PM 41.0 °F 33.5 °F 41.0 °F 100% 30.02 in 0.2 mi SE 13.8 mph 18.4 mph 0.07 in Rain Light Rain
5:40 PM 41.0 °F 32.8 °F 41.0 °F 100% 30.02 in 0.2 mi SE 16.1 mph 23.0 mph 0.15 in   Unknown
6:00 PM 41.0 °F 34.7 °F 41.0 °F 100% 30.03 in 0.2 mi SE 10.4 mph - 0.06 in   Overcast
6:20 PM 41.0 °F 35.2 °F 41.0 °F 100% 30.02 in 0.2 mi ESE 9.2 mph - 0.13 in   Overcast
6:40 PM 41.0 °F 37.1 °F 41.0 °F 100% 30.01 in 0.2 mi ESE 5.8 mph - 0.18 in Rain Rain
7:00 PM 42.8 °F 38.0 °F 41.0 °F 93% 30.00 in 0.2 mi SE 8.1 mph - 0.03 in Rain Heavy Rain
7:20 PM 42.8 °F 36.6 °F - N/A% 30.00 in 0.2 mi SE 11.5 mph - 0.09 in Rain Rain
7:40 PM 42.8 °F 35.4 °F - N/A% 29.94 in 0.2 mi SE 15.0 mph - 0.12 in Rain Rain
8:00 PM 42.8 °F 36.6 °F - N/A% 29.94 in 0.2 mi ESE 11.5 mph 17.3 mph N/A   Unknown
8:20 PM 42.8 °F 36.6 °F - N/A% 29.93 in 0.2 mi SE 11.5 mph 18.4 mph N/A   Unknown
8:40 PM 42.8 °F 34.8 °F - N/A% 29.97 in 0.2 mi West 17.3 mph 27.6 mph 0.01 in   Unknown
9:00 PM 42.8 °F 37.5 °F - N/A% 29.98 in 0.2 mi West 9.2 mph 18.4 mph 0.04 in Rain Heavy Rain
9:20 PM 44.6 °F 39.7 °F - N/A% 29.93 in 7.0 mi South 9.2 mph - 0.08 in Rain Light Rain
9:40 PM 44.6 °F 38.4 °F - N/A% 29.92 in 0.2 mi South 12.7 mph 17.3 mph 0.08 in   Light Drizzle
10:00 PM 44.6 °F 38.8 °F - N/A% 29.92 in 1.5 mi South 11.5 mph 17.3 mph N/A   Overcast
10:20 PM 44.6 °F 39.7 °F - N/A% 29.90 in 0.8 mi South 9.2 mph 17.3 mph N/A Rain Light Rain
11:00 PM 44.6 °F 39.2 °F - N/A% 29.89 in 0.2 mi South 10.4 mph - N/A Rain Rain
11:20 PM 46.4 °F 41.9 °F - N/A% 29.88 in 3.0 mi South 9.2 mph - 0.01 in Rain Rain
11:40 PM 48.2 °F - - N/A% 29.87 in 10.0 mi SW 11.5 mph 19.6 mph 0.04 in Rain Light Rain